Regional Weather Roundup
Issued by NWS

Home | Current Version | Previous Version | Text Only | Print | Product List | Glossary Off
Versions: 1 2 3 4 5 6 7 8 9 10 11 12 13 14 15 16 17 18 19 20 21 22 23 24 25 26 27 28 29 30 31 32 33 34 35 36 37 38 39 40 41 42 43 44 45 46 47 48 49 50

000
ASUS43 KMPX 042010
RWRMN
WEATHER ROUNDUP FOR MINNESOTA
NATIONAL WEATHER SERVICE TWIN CITIES/CHANHASSEN MN
300 PM CDT WED MAY 04 2016


NOTE: "FAIR" INDICATES FEW OR NO CLOUDS BELOW 12,000 FEET WITH NO
SIGNIFICANT WEATHER AND/OR OBSTRUCTIONS TO VISIBILITY. N/A MEANS
CURRENT SKY AND/OR WEATHER CONDITIONS ARE NOT AVAILABLE.

MNZ060>063-068>070-042100-
   Twin Cities Metro

CITY           SKY/WX    TMP DP  RH WIND       PRES   REMARKS
TWIN CITIES    SUNNY     65  26  23 N15G26    29.95S
ST PAUL        SUNNY     64  32  30 N23G30    29.95S
CRYSTAL        SUNNY     66  25  21 N16G23    29.94S
BLAINE         SUNNY    N/A N/A N/A N17G24    29.95S
EDEN PRAIRIE   SUNNY     66  31  27 N10G24    29.94S
SOUTH ST PAUL  SUNNY     64  29  26 N15G25    29.94S
LAKE ELMO      FAIR      63  32  31 N16       29.95S
$$
MNZ001>005-007-008-013>017-022>024-027-028-042100-
   Northwest Minnesota

CITY           SKY/WX    TMP DP  RH WIND       PRES   REMARKS
BEMIDJI        SUNNY     60  25  25 N12       30.01F
HALLOCK        SUNNY     66  27  22 N7        30.01F
ROSEAU         SUNNY     63  19  19 NE3       30.01F
WARROAD        SUNNY     57  30  35 E9        30.03F
THIEF RVR FALL SUNNY     63  27  25 N12       30.03F
CROOKSTON      SUNNY     64  30  27 N9        30.02F
FOSSTON        SUNNY     64  21  19 N5G17     30.02F
DETROIT LAKES  SUNNY     63  28  27 N12G20    30.03F
MOORHEAD       SUNNY     66  30  26 N10G16    30.03F
PARK RAPIDS    SUNNY     64  23  21 N9        29.99F
MAHNOMEN       FAIR      63  27  25 N10G16    30.02S
$$
MNZ006-009>011-018-025>026-042100-
   North Central Minnesota

CITY           SKY/WX    TMP DP  RH WIND       PRES   REMARKS
BAUDETTE       SUNNY     57  16  20 N8        30.03F
FLAG ISLAND    SUNNY     54  37  54 S7        30.01F
INTL FALLS     SUNNY     59  19  21 NE7       30.00F
WASKISH        SUNNY     61  19  20 NW12      30.01F
BIG FORK       SUNNY     63  16  16 N5        29.99F
LONGVILLE      SUNNY     63  21  20 NW10G17   29.99F
GRAND RAPIDS   SUNNY     61  19  20 N13G20    29.99F
CRANE LAKE     SUNNY     55  16  21 N6        30.00F
ORR            SUNNY     59  12  15 NW6       29.96F
COOK           SUNNY     57  19  23 NW6G16    29.98S
WALKER         FAIR      60  27  27 N14G22    30.00F
$$
MNZ012-019>021-037-042100-
   Northeast Minnesota

CITY           SKY/WX    TMP DP  RH WIND       PRES   REMARKS
DULUTH         SUNNY     61  19  19 N15G23    29.95S
ELY            SUNNY     55  19  24 N10       29.96F
HIBBING        SUNNY     59  19  21 N15G29    29.96F
EVELETH        SUNNY     59  18  20 NW5       29.98S
DULUTH HARBOR  SUNNY     43  37  81 NE8       29.99S
TWO HARBORS    SUNNY     54  36  50 E9        29.95S
SILVER BAY     SUNNY     52  30  43 SE7       29.95S
GRAND MARAIS     N/A     42  33  70 SE3       29.99S
G MARAIS ARPRT SUNNY     54  25  32 N7G17     29.95F
$$
MNZ029>031-032-039>041-046>048-054>057-064-042100-
   West Central Minnesota

CITY           SKY/WX    TMP DP  RH WIND       PRES   REMARKS
FERGUS FALLS   SUNNY     64  36  34 N8G21     30.00S
WHEATON        SUNNY     70  36  28 NW15G21   30.04F
MORRIS         SUNNY     68  34  28 NW16G26   30.00F
ALEXANDRIA     SUNNY     65  33  30 N12G20    30.01F
ELBOW LAKE     FAIR      63  33  32 N15       30.01F
WADENA         SUNNY     64  27  24 N10G20    29.99F
GLENWOOD       SUNNY     66  32  28 N8G20     30.01S
APPLETON       SUNNY     68  27  21 N20G25    30.00F
BENSON         SUNNY     68  27  21 N13G22    30.00F
ORTONVILLE     SUNNY     66  28  24 NW13G24   30.02F
MADISON        SUNNY     66  28  24 N18       30.02S
WILLMAR        FAIR      66  30  26 NW14G23   30.00F
$$
MNZ033>034-036-042>043-049>051-058-059-042100-
   Central Minnesota

CITY           SKY/WX    TMP DP  RH WIND       PRES   REMARKS
ST CLOUD       SUNNY     64  22  20 N10G24    29.97S
SAUK CENTRE    FAIR      64  29  27 N14G22    29.99S
PAYNESVILLE    SUNNY     66  27  22 N14G20    29.99S
AITKIN         SUNNY     66   5   9 N13       29.95F
PINE RIVER     SUNNY     63  30  29 N10       30.02F
BRAINERD       SUNNY     62  23  22 N18       29.99F
STAPLES        SUNNY     64  19  17 N15G21    29.99S
LONG PRAIRIE   FAIR      63  30  29 W10G21    29.99F
LITTLE FALLS   SUNNY     63  19  19 N10G17    29.98S
LITCHFIELD     SUNNY     66  30  26 NW15G21   29.98S
BUFFALO        SUNNY     64  25  22 NW12G21   29.97S
MAPLE LAKE     SUNNY     65  32  28 N12       29.97F
HUTCHINSON     SUNNY     66  34  30 N13G24    29.98F
$$
MNZ037-044-045-052-053-042100-
   East Central Minnesota

CITY           SKY/WX    TMP DP  RH WIND       PRES   REMARKS
PRINCETON      SUNNY     64  21  19 N18       29.97S
MORA           SUNNY     63  23  22 N8G17     29.97S
CAMBRIDGE      SUNNY     64  39  39 NW9G22    29.93F
RUSH CITY      SUNNY     63  25  23 N14G21    29.94F
MOOSE LAKE     SUNNY     63  28  27 N12G18    29.93F
HINCKLEY       CLOUDY    63  27  25 N15G26    29.94F
CLOQUET        SUNNY     61  12  15 N16G24    29.95S
MCGREGOR       SUNNY     63  23  22 N8G18     29.97S
$$
MNZ071>073-080-081-089-090-097-098-042100-
   Southwest Minnesota

CITY           SKY/WX    TMP DP  RH WIND       PRES   REMARKS
MONTEVIDEO     SUNNY     70  30  23 N18G26    30.01F
GRANITE FALLS  SUNNY     69  33  27 NW16G29   30.01F
CANBY          SUNNY     68  36  30 NW14G24   30.03F
MARSHALL       SUNNY     67  33  28 N17       30.00F
REDWOOD FALLS  SUNNY     67  29  24 NW14G21   29.98F
OLIVIA         SUNNY     68  32  26 NW9G25    29.98S
PIPESTONE      SUNNY     66  25  20 N13G20    30.02F
WINDOM         SUNNY     64  32  29 NW13G31   30.00S
WORTHINGTON    SUNNY     63  36  36 NW20G28   30.02F
JACKSON        SUNNY     64  30  27 NW14G25   30.00F
TRACY          SUNNY     67  33  28 N16G23    30.01F
SLAYTON        SUNNY     64  32  29 NW18G24   30.02F
$$
MNZ065>067-074>077-082>085-091>093-042100-
   South Central Minnesota

CITY           SKY/WX    TMP DP  RH WIND       PRES   REMARKS
MANKATO        SUNNY     64  32  29 N17G31    29.96F
NEW ULM        SUNNY     66  30  26 N21       29.95F
ST JAMES       SUNNY     63  27  25 NW21G29   29.98F
FAIRMONT       SUNNY     64  34  32 N16G24    29.97F
GLENCOE        SUNNY     66  33  29 NW14G21   29.96S
FARIBAULT      SUNNY     64  28  25 N15G24    29.94F
OWATONNA       SUNNY     63  30  29 NW18G26   29.94F
WASECA         SUNNY     64  30  27 NW22G28   29.96F
ALBERT LEA     SUNNY     64  28  25 NW13G24   29.94S
$$
MNZ078>079-086>088-094>096-042100-
   Southeast Minnesota

CITY           SKY/WX    TMP DP  RH WIND       PRES   REMARKS
ROCHESTER      SUNNY     62  34  35 N25G33    29.92F
RED WING       SUNNY     64  27  24 NW10G17   29.92S
STANTON        SUNNY     65  28  24 N18G25    29.92S
DODGE CENTER   SUNNY     63  30  29 N20G26    29.92F
WINONA         SUNNY     63  32  31 NW16G24   29.90S
AUSTIN         SUNNY     61  30  31 N16G28    29.93S
PRESTON        MOSUNNY   59  32  35 N14G31    29.91S
$$
ABBREVIATIONS USED IN REMARKS
   TC - TEMPERATURES IN CELSIUS
  WCI - WIND CHILL INDEX
   HX - HEAT INDEX
  VSB - VISIBILITY
$$




USA.gov is the U.S. government's official web portal to all federal, state and local government web resources and services.